This is the latest recevied weather packets stored in our database for station/object N4DWK. If no packets are shown the sender has not sent any weather packets the latest 10 day(s).
| Time | Temp. | Humidity | Pressure | Rain* | Wind** | Luminosity | Snow |
|---|---|---|---|---|---|---|---|
| 1778084105 | 17.22° C | 92% | 1011.2 hPa | 0.25 mm | - | 97 W/m² | - |
| 1778083806 | 17.22° C | 92% | 1011.2 hPa | 0.25 mm | - | 77 W/m² | - |
| 1778083505 | 17.22° C | 92% | 1011.2 hPa | 0.25 mm | - | 63 W/m² | - |
| 1778083205 | 17.22° C | 92% | 1011.4 hPa | 0.25 mm | - | 47 W/m² | - |
| 1778082905 | 17.22° C | 92% | 1011.2 hPa | 0.25 mm | - | 42 W/m² | - |
| 1778082605 | 17.22° C | 92% | 1011.4 hPa | 0.25 mm | - | 40 W/m² | - |
| 1778082306 | 17.22° C | 92% | 1011.4 hPa | 0.25 mm | - | 46 W/m² | - |
| 1778082006 | 17.22° C | 92% | 1011.6 hPa | 0.25 mm | - | 54 W/m² | - |
| 1778081705 | 17.22° C | 92% | 1011.6 hPa | 1.27 mm | - | 69 W/m² | - |
| 1778081405 | 17.22° C | 92% | 1011.8 hPa | 1.78 mm | - | 83 W/m² | - |
| 1778081105 | 17.22° C | 93% | 1011.9 hPa | 2.29 mm | - | 84 W/m² | - |
| 1778080806 | 17.22° C | 93% | 1011.9 hPa | 2.54 mm | - | 91 W/m² | - |
| 1778080505 | 17.22° C | 92% | 1012 hPa | 2.79 mm | - | 83 W/m² | - |
| 1778080205 | 17.22° C | 92% | 1012 hPa | 3.05 mm | - | 88 W/m² | - |
| 1778079905 | 17.22° C | 92% | 1012.1 hPa | 3.3 mm | - | 53 W/m² | - |
| 1778079606 | 17.22° C | 92% | 1012.1 hPa | 3.3 mm | - | 47 W/m² | - |
| 1778079305 | 16.67° C | 92% | 1012.1 hPa | 3.3 mm | - | 76 W/m² | - |
| 1778079006 | 16.67° C | 91% | 1012.1 hPa | 3.56 mm | - | 79 W/m² | - |
| 1778078706 | 16.67° C | 90% | 1012.1 hPa | 3.56 mm | - | 63 W/m² | - |
| 1778078405 | 16.67° C | 90% | 1012.2 hPa | 3.56 mm | - | 30 W/m² | - |
| 1778078106 | 17.22° C | 90% | 1012.4 hPa | 2.54 mm | - | 19 W/m² | - |
| 1778077805 | 17.22° C | 89% | 1012.4 hPa | 2.03 mm | - | 12 W/m² | - |
| 1778077505 | 17.22° C | 88% | 1012.5 hPa | 1.52 mm | - | 21 W/m² | - |
| 1778077205 | 17.22° C | 87% | 1012.4 hPa | 1.27 mm | - | 19 W/m² | - |
| 1778076905 | 17.78° C | 86% | 1012.4 hPa | 0.76 mm | - | 26 W/m² | - |
* Rain latest hour (hover to see other rain measurements)
** Current wind speed in m/s (hover to see current wind gust speed)